Location: Saint-Denis
(20.8800°S, 55.4481°E)
Time: 19:39:36
(UTC+04:00)

NOAA 15 - Visible Passes

Search period start: 31 May 2023 00:00
Search period end: 10 June 2023 00:00
Orbit: 796 x 811 km, 98.6° (Epoch: 31 May)

Date Brightness Start Highest point End Pass type
(mag) Time Alt. Az. Time Alt. Az. Time Alt. Az.
31 May 5.8 20:03:33 35° NNW 20:03:33 35° NNW 20:06:28 10° NNW visible
01 Jun 5.6 19:37:45 32° NNE 19:37:45 32° NNE 19:40:49 10° N visible
02 Jun 6.0 19:11:58 21° NE 19:11:58 21° NE 19:14:31 10° NNE visible
02 Jun 7.2 20:52:58 15° WNW 20:52:58 15° WNW 20:54:02 10° NW visible
03 Jun 7.3 06:16:52 10° E 06:19:26 14° ESE 06:22:01 10° SE visible
03 Jun 6.5 18:46:10 11° ENE 18:46:10 11° ENE 18:46:51 10° ENE visible
03 Jun 6.4 20:27:10 26° NW 20:27:10 26° NW 20:29:32 10° NNW visible
04 Jun 5.7 20:01:23 36° NNW 20:01:23 36° NNW 20:04:24 10° NNW visible
05 Jun 5.5 19:35:35 32° NNE 19:35:35 32° NNE 19:38:43 10° N visible
06 Jun 6.0 19:09:47 21° NE 19:09:47 21° NE 19:12:20 10° NNE visible
06 Jun 7.1 20:50:48 16° WNW 20:50:48 16° WNW 20:52:05 10° NW visible
07 Jun 7.4 06:15:05 10° E 06:17:24 13° ESE 06:19:44 10° SE visible
07 Jun 6.5 18:43:59 11° ENE 18:43:59 11° ENE 18:44:26 10° ENE visible
07 Jun 6.3 20:25:00 28° NW 20:25:00 28° NW 20:27:31 10° NNW visible
08 Jun 5.6 19:59:12 38° N 19:59:12 38° N 20:02:21 10° N visible
09 Jun 5.5 19:33:24 32° NE 19:33:24 32° NE 19:36:36 10° N visible
